• In Deutschland
  • Länderverzeichnis
  • Für 7 Tage
  • Wassertemperatur
  • Satellitenkarten
  • Wetterkarte
  • Widgets
  • user-avatar
    Anmelden

    Stündliche Wetter Ganja

    Heute, 23 Juli, Sonntag

    Zeit Temperatur Niederschläge Wind Luftdruck Luftfeuchtigkeit
    00:00 +28°C° 0 mm 2 m/S 723 mmHg 41%
    01:00 +27°C° 0 mm 1 m/S 723 mmHg 42%
    02:00 +27°C° 0 mm 1 m/S 723 mmHg 43%
    03:00 +26°C° 0 mm 1 m/S 723 mmHg 44%
    04:00 +27°C° 0 mm 2 m/S 723 mmHg 44%
    05:00 +27°C° 0 mm 2 m/S 723 mmHg 44%
    06:00 +27°C° 0 mm 2 m/S 723 mmHg 45%
    07:00 +29°C° 0 mm 2 m/S 723 mmHg 40%
    08:00 +30°C° 0 mm 3 m/S 722 mmHg 35%
    09:00 +33°C° 0 mm 3 m/S 722 mmHg 31%
    10:00 +34°C° 0 mm 3 m/S 722 mmHg 29%
    11:00 +35°C° 0 mm 2 m/S 721 mmHg 28%
    12:00 +36°C° 0 mm 2 m/S 721 mmHg 26%
    13:00 +37°C° 0 mm 2 m/S 721 mmHg 26%
    14:00 +37°C° 0 mm 2 m/S 720 mmHg 25%
    15:00 +38°C° 0 mm 2 m/S 720 mmHg 25%
    16:00 +37°C° 0 mm 2 m/S 720 mmHg 26%
    17:00 +37°C° 0 mm 2 m/S 720 mmHg 27%
    18:00 +37°C° 0 mm 2 m/S 720 mmHg 28%
    19:00 +35°C° 0 mm 2 m/S 721 mmHg 29%
    20:00 +32°C° 0 mm 2 m/S 721 mmHg 31%
    21:00 +31°C° 0 mm 2 m/S 722 mmHg 33%
    22:00 +30°C° 0 mm 2 m/S 722 mmHg 37%
    23:00 +29°C° 0 mm 2 m/S 722 mmHg 41%

    Morgen, 24 Juli, Montag

    Zeit Temperatur Niederschläge Wind Luftdruck Luftfeuchtigkeit
    00:00 +28°C° 0 mm 2 m/S 722 mmHg 45%
    01:00 +27°C° 0 mm 2 m/S 722 mmHg 49%
    02:00 +26°C° 0 mm 2 m/S 722 mmHg 53%
    03:00 +26°C° 0 mm 2 m/S 722 mmHg 57%
    04:00 +26°C° 0 mm 2 m/S 722 mmHg 57%
    05:00 +26°C° 0 mm 2 m/S 722 mmHg 57%
    06:00 +26°C° 0 mm 2 m/S 722 mmHg 57%
    07:00 +28°C° 0 mm 2 m/S 722 mmHg 51%
    08:00 +29°C° 0 mm 2 m/S 722 mmHg 45%
    09:00 +31°C° 0 mm 2 m/S 722 mmHg 39%
    10:00 +33°C° 0 mm 3 m/S 722 mmHg 37%
    11:00 +34°C° 0 mm 4 m/S 721 mmHg 34%
    12:00 +36°C° 0 mm 4 m/S 721 mmHg 32%
    13:00 +36°C° 0 mm 5 m/S 721 mmHg 31%
    14:00 +37°C° 0 mm 5 m/S 720 mmHg 31%
    15:00 +39°C° 0 mm 6 m/S 720 mmHg 30%
    16:00 +38°C° 0 mm 6 m/S 720 mmHg 32%
    17:00 +36°C° 0 mm 6 m/S 720 mmHg 34%
    18:00 +36°C° 0 mm 6 m/S 720 mmHg 36%
    19:00 +34°C° 0 mm 5 m/S 720 mmHg 40%
    20:00 +32°C° 0 mm 5 m/S 720 mmHg 43%
    21:00 +30°C° 0 mm 5 m/S 721 mmHg 47%
    22:00 +29°C° 0,1 mm 4 m/S 721 mmHg 49%
    23:00 +28°C° 0,1 mm 4 m/S 721 mmHg 51%

    übermorgen, 25 Juli, Dienstag

    Zeit Temperatur Niederschläge Wind Luftdruck Luftfeuchtigkeit
    00:00 +27°C° 0,1 mm 3 m/S 721 mmHg 53%
    01:00 +26°C° 0 mm 3 m/S 721 mmHg 54%
    02:00 +26°C° 0 mm 2 m/S 721 mmHg 55%
    03:00 +25°C° 0 mm 2 m/S 720 mmHg 55%
    04:00 +25°C° 0 mm 2 m/S 721 mmHg 54%
    05:00 +25°C° 0 mm 1 m/S 721 mmHg 52%
    06:00 +26°C° 0 mm 1 m/S 721 mmHg 51%
    07:00 +27°C° 0 mm 2 m/S 721 mmHg 47%
    08:00 +29°C° 0 mm 2 m/S 720 mmHg 44%
    09:00 +30°C° 0 mm 2 m/S 720 mmHg 40%
    10:00 +31°C° 0 mm 2 m/S 720 mmHg 38%
    11:00 +34°C° 0 mm 2 m/S 719 mmHg 35%
    12:00 +35°C° 0 mm 2 m/S 719 mmHg 33%
    13:00 +35°C° 0,1 mm 2 m/S 719 mmHg 32%
    14:00 +36°C° 0,1 mm 2 m/S 718 mmHg 32%
    15:00 +37°C° 0,1 mm 2 m/S 718 mmHg 31%
    16:00 +36°C° 0,1 mm 2 m/S 718 mmHg 32%
    17:00 +36°C° 0,1 mm 2 m/S 718 mmHg 33%
    18:00 +36°C° 0,1 mm 2 m/S 718 mmHg 35%
    19:00 +34°C° 0,1 mm 2 m/S 719 mmHg 38%
    20:00 +31°C° 0,1 mm 2 m/S 719 mmHg 41%
    21:00 +29°C° 0,1 mm 2 m/S 720 mmHg 43%
    22:00 +29°C° 0,2 mm 2 m/S 720 mmHg 45%
    23:00 +28°C° 0,2 mm 2 m/S 720 mmHg 47%

    26 Juli, Mittwoch

    Zeit Temperatur Niederschläge Wind Luftdruck Luftfeuchtigkeit
    00:00 +27°C° 0,2 mm 2 m/S 720 mmHg 48%
    01:00 +27°C° 0 mm 2 m/S 720 mmHg 49%
    02:00 +26°C° 0 mm 2 m/S 720 mmHg 49%
    03:00 +26°C° 0 mm 2 m/S 720 mmHg 50%
    04:00 +26°C° 0 mm 2 m/S 720 mmHg 49%
    05:00 +27°C° 0 mm 2 m/S 720 mmHg 49%
    06:00 +27°C° 0 mm 3 m/S 720 mmHg 48%
    07:00 +29°C° 0 mm 3 m/S 720 mmHg 43%
    08:00 +30°C° 0 mm 3 m/S 720 mmHg 38%
    09:00 +33°C° 0 mm 3 m/S 720 mmHg 33%
    10:00 +34°C° 0 mm 3 m/S 720 mmHg 31%
    11:00 +35°C° 0 mm 2 m/S 720 mmHg 30%
    12:00 +36°C° 0 mm 2 m/S 720 mmHg 28%
    13:00 +37°C° 0,1 mm 2 m/S 720 mmHg 28%
    14:00 +38°C° 0,1 mm 2 m/S 719 mmHg 28%
    15:00 +38°C° 0,1 mm 2 m/S 719 mmHg 27%
    16:00 +38°C° 0,1 mm 2 m/S 720 mmHg 29%
    17:00 +37°C° 0,1 mm 2 m/S 720 mmHg 30%
    18:00 +37°C° 0,1 mm 2 m/S 720 mmHg 32%
    19:00 +35°C° 0 mm 2 m/S 721 mmHg 35%
    20:00 +32°C° 0 mm 2 m/S 721 mmHg 38%
    21:00 +31°C° 0 mm 2 m/S 722 mmHg 41%
    22:00 +30°C° 0 mm 3 m/S 722 mmHg 42%
    23:00 +29°C° 0 mm 3 m/S 722 mmHg 43%

    27 Juli, Donnerstag

    Zeit Temperatur Niederschläge Wind Luftdruck Luftfeuchtigkeit
    00:00 +29°C° 0 mm 3 m/S 722 mmHg 44%
    01:00 +28°C° 0 mm 2 m/S 722 mmHg 44%
    02:00 +28°C° 0 mm 2 m/S 723 mmHg 45%
    03:00 +27°C° 0 mm 2 m/S 723 mmHg 45%
    04:00 +27°C° 0 mm 2 m/S 723 mmHg 44%
    05:00 +28°C° 0 mm 2 m/S 723 mmHg 44%
    06:00 +28°C° 0 mm 2 m/S 723 mmHg 43%
    07:00 +30°C° 0 mm 2 m/S 724 mmHg 39%
    08:00 +31°C° 0 mm 2 m/S 724 mmHg 34%
    09:00 +34°C° 0 mm 2 m/S 724 mmHg 30%
    10:00 +35°C° 0 mm 2 m/S 723 mmHg 29%
    11:00 +37°C° 0 mm 2 m/S 723 mmHg 28%
    12:00 +38°C° 0 mm 2 m/S 723 mmHg 27%
    13:00 +38°C° 0 mm 2 m/S 723 mmHg 27%
    14:00 +39°C° 0 mm 3 m/S 723 mmHg 26%
    15:00 +40°C° 0 mm 3 m/S 723 mmHg 26%
    16:00 +39°C° 0 mm 3 m/S 723 mmHg 27%
    17:00 +39°C° 0 mm 3 m/S 723 mmHg 29%
    18:00 +38°C° 0 mm 3 m/S 723 mmHg 30%
    19:00 +37°C° 0 mm 3 m/S 724 mmHg 33%
    20:00 +35°C° 0 mm 4 m/S 724 mmHg 36%
    21:00 +33°C° 0 mm 4 m/S 725 mmHg 38%
    22:00 +32°C° 0 mm 4 m/S 725 mmHg 40%
    23:00 +30°C° 0 mm 4 m/S 725 mmHg 41%

    28 Juli, Freitag

    Zeit Temperatur Niederschläge Wind Luftdruck Luftfeuchtigkeit
    00:00 +30°C° 0 mm 3 m/S 725 mmHg 42%
    01:00 +29°C° 0 mm 3 m/S 725 mmHg 42%
    02:00 +29°C° 0 mm 3 m/S 725 mmHg 43%
    03:00 +28°C° 0 mm 2 m/S 726 mmHg 43%
    04:00 +28°C° 0 mm 2 m/S 726 mmHg 43%
    05:00 +28°C° 0 mm 2 m/S 726 mmHg 43%
    06:00 +29°C° 0 mm 2 m/S 726 mmHg 43%
    07:00 +30°C° 0 mm 2 m/S 726 mmHg 39%
    08:00 +32°C° 0 mm 2 m/S 726 mmHg 35%
    09:00 +34°C° 0 mm 1 m/S 726 mmHg 31%
    10:00 +36°C° 0 mm 2 m/S 726 mmHg 30%
    11:00 +37°C° 0 mm 2 m/S 725 mmHg 28%
    12:00 +38°C° 0 mm 2 m/S 725 mmHg 26%
    13:00 +39°C° 0 mm 3 m/S 725 mmHg 25%
    14:00 +40°C° 0 mm 3 m/S 725 mmHg 25%
    15:00 +42°C° 0 mm 3 m/S 725 mmHg 24%
    16:00 +41°C° 0 mm 4 m/S 725 mmHg 25%
    17:00 +41°C° 0 mm 4 m/S 725 mmHg 26%
    18:00 +40°C° 0 mm 4 m/S 725 mmHg 27%
    19:00 +37°C° 0 mm 4 m/S 725 mmHg 30%
    20:00 +35°C° 0 mm 5 m/S 726 mmHg 33%
    21:00 +33°C° 0 mm 5 m/S 726 mmHg 36%
    22:00 +33°C° 0 mm 5 m/S 727 mmHg 38%
    23:00 +32°C° 0 mm 4 m/S 727 mmHg 40%
    Mehr zeigen